ARIANE 1 DEB, 40778

Orbit data source: Space-Track

ARIANE 1 DEB, 40778 is space debris in HEO originally from a launch on Mon, 24 Dec 1979 UTC launched from the French Guiana (FRGUI). Debris objects in space refer to the collection of defunct objects orbiting the Earth. Examples of debris include non-operational satellites, rocket bodies, and fragments generated from explosions, collisions, or faulty payload assembly.

Loading next visibility...
Identifier
40778, 1979-104AF
Orbit
HEO
Country
Flag of FRFR
Related business
Manufacturer
Unknown
Mission
Spacecraft
Bus & Motor
Unknown
Mass
Unknown
Launch date (UTC)
1979-12-24 (46 years ago)
Launch vehicle
Unknown
Launch site
French Guiana (FRGUI)
Object type
Payload
Rocket body
Debris
Shape & HBR
Unknown shape, 0.1 m
Radar Cross Section
Small (<0.1 m²)

Expand to show TLE details & history
Last TLE update: 3 days ago

TLE from 3 days ago
0 ARIANE 1 DEB
1 40778U 79104AF  25307.49337178  .00001222  00000-0  25013-2 0  9996
2 40778  18.0117   9.8617 4847000 325.4923  23.3662  5.57724582241899
Epoch: 2025-11-03T11:50Z
TLE epoch observation values (Epoch: 2025-11-03T11:50:27.321Z)
Latitude
9.31589°
Longitude
179.39009°
Altitude
2,200.982 km
Speed
7.953 km/s
True Right ascension
02h 39m 59s
True Declination
9° 16' 13"
Sunlit
Object was in full shadow at epoch
Visualization orbit readout
Latitude
Unknown
Longitude
Unknown
Altitude
Unknown
Speed
Unknown
Apparent Right ascension
Unknown
Apparent Declination
Unknown
Sunlit
N/A
Visualization observer readout
Local Sidereal Time
18:40:39
Azimuth
Unknown
Elevation
Unknown
Doppler factor
Unknown
Orbital elements
Apogee altitude
13,569.74 km
Perigee altitude
545.242 km
Semi-major axis
13,435.628 km
Eccentricity
0.4847
Inclination
18.0117°
RAAN
9.8617°
Arg. of periapsis
325.4923°
True anomaly
66.06532°
Mean anomaly
23.3662°
Eccentric anomaly
41.91995°
Mean motion
1.39366 °/min
Orbital period
258.31 mins
BSTAR
0.0025013
Loading maneuver chart data...
Computing Atmospheric mass density...
Loading historical data...
Loading historical data...
Loading historical data...
Loading historical data...
Loading historical data...
Loading historical data...
Loading historical data...

Documentation

Showing up to 5 results
|